Year,Month,Day,Hour,Minute,Value (Times are PST for temperature in C)
2011,04,11,00,00,5.30
2011,04,11,00,01,5.30
2011,04,11,00,02,5.30
2011,04,11,00,03,5.30
2011,04,11,00,04,5.30
2011,04,11,00,05,5.30
2011,04,11,00,06,5.30
2011,04,11,00,07,5.30
2011,04,11,00,08,5.30
2011,04,11,00,09,5.30
2011,04,11,00,10,5.30
2011,04,11,00,11,5.20
2011,04,11,00,12,5.20
2011,04,11,00,13,5.20
2011,04,11,00,14,5.20
2011,04,11,00,15,5.10
2011,04,11,00,16,5.10
2011,04,11,00,17,5.00
2011,04,11,00,18,5.00
2011,04,11,00,19,4.90
2011,04,11,00,20,4.90
2011,04,11,00,21,4.90
2011,04,11,00,22,4.90
2011,04,11,00,23,4.80
2011,04,11,00,24,4.80
2011,04,11,00,25,4.80
2011,04,11,00,26,4.80
2011,04,11,00,27,4.70
2011,04,11,00,28,4.70
2011,04,11,00,29,4.70
2011,04,11,00,30,4.70
2011,04,11,00,31,4.70
2011,04,11,00,32,4.70
2011,04,11,00,33,4.70
2011,04,11,00,34,4.70
2011,04,11,00,35,4.70
2011,04,11,00,36,4.60
2011,04,11,00,37,4.60
2011,04,11,00,38,4.60
2011,04,11,00,39,4.60
2011,04,11,00,40,4.60
2011,04,11,00,41,4.60
2011,04,11,00,42,4.60
2011,04,11,00,43,4.60
2011,04,11,00,44,4.60
2011,04,11,00,45,4.60
2011,04,11,00,46,4.50
2011,04,11,00,47,4.50
2011,04,11,00,48,4.50
2011,04,11,00,49,4.50
2011,04,11,00,50,4.40
2011,04,11,00,51,4.40
2011,04,11,00,52,4.40
2011,04,11,00,53,4.40
2011,04,11,00,54,4.30
2011,04,11,00,55,4.30
2011,04,11,00,56,4.30
2011,04,11,00,57,4.30
2011,04,11,00,58,4.30
2011,04,11,00,59,4.30
2011,04,11,01,00,4.30
2011,04,11,01,01,4.20
2011,04,11,01,02,4.20
2011,04,11,01,03,4.20
2011,04,11,01,04,4.20
2011,04,11,01,05,4.20
2011,04,11,01,06,4.30
2011,04,11,01,07,4.20
2011,04,11,01,08,4.20
2011,04,11,01,09,4.20
2011,04,11,01,10,4.20
2011,04,11,01,11,4.20
2011,04,11,01,12,4.20
2011,04,11,01,13,4.20
2011,04,11,01,14,4.20
2011,04,11,01,15,4.10
2011,04,11,01,16,4.20
2011,04,11,01,17,4.20
2011,04,11,01,18,4.20
2011,04,11,01,19,4.20
2011,04,11,01,20,4.20
2011,04,11,01,21,4.20
2011,04,11,01,22,4.20
2011,04,11,01,23,4.30
2011,04,11,01,24,4.30
2011,04,11,01,25,4.30
2011,04,11,01,26,4.30
2011,04,11,01,27,4.40
2011,04,11,01,28,4.40
2011,04,11,01,29,4.40
2011,04,11,01,30,4.40
2011,04,11,01,31,4.40
2011,04,11,01,32,4.50
2011,04,11,01,33,4.50
2011,04,11,01,34,4.50
2011,04,11,01,35,4.60
2011,04,11,01,36,4.60
2011,04,11,01,37,4.60
2011,04,11,01,38,4.60
2011,04,11,01,39,4.60
2011,04,11,01,40,4.50
2011,04,11,01,41,4.50
2011,04,11,01,42,4.50
2011,04,11,01,43,4.50
2011,04,11,01,44,4.50
2011,04,11,01,45,4.50
2011,04,11,01,46,4.40
2011,04,11,01,47,4.40
2011,04,11,01,48,4.40
2011,04,11,01,49,4.40
2011,04,11,01,50,4.40
2011,04,11,01,51,4.40
2011,04,11,01,52,4.40
2011,04,11,01,53,4.40
2011,04,11,01,54,4.40
2011,04,11,01,55,4.40
2011,04,11,01,56,4.40
2011,04,11,01,57,4.40
2011,04,11,01,58,4.40
2011,04,11,01,59,4.40
2011,04,11,02,00,4.40
2011,04,11,02,01,4.30
2011,04,11,02,02,4.30
2011,04,11,02,03,4.30
2011,04,11,02,04,4.30
2011,04,11,02,05,4.30
2011,04,11,02,06,4.30
2011,04,11,02,07,4.30
2011,04,11,02,08,4.30
2011,04,11,02,09,4.30
2011,04,11,02,10,4.30
2011,04,11,02,11,4.20
2011,04,11,02,12,4.20
2011,04,11,02,13,4.20
2011,04,11,02,14,4.20
2011,04,11,02,15,4.20
2011,04,11,02,16,4.20
2011,04,11,02,17,4.20
2011,04,11,02,18,4.20
2011,04,11,02,19,4.20
2011,04,11,02,20,4.30
2011,04,11,02,21,4.20
2011,04,11,02,22,4.20
2011,04,11,02,23,4.20
2011,04,11,02,24,4.20
2011,04,11,02,25,4.20
2011,04,11,02,26,4.20
2011,04,11,02,27,4.20
2011,04,11,02,28,4.20
2011,04,11,02,29,4.20
2011,04,11,02,30,4.20
2011,04,11,02,31,4.20
2011,04,11,02,32,4.20
2011,04,11,02,33,4.20
2011,04,11,02,34,4.20
2011,04,11,02,35,4.10
2011,04,11,02,36,4.10
2011,04,11,02,37,4.10
2011,04,11,02,38,4.00
2011,04,11,02,39,4.00
2011,04,11,02,40,4.00
2011,04,11,02,41,3.90
2011,04,11,02,42,3.90
2011,04,11,02,43,3.90
2011,04,11,02,44,3.90
2011,04,11,02,45,3.90
2011,04,11,02,46,3.80
2011,04,11,02,47,3.80
2011,04,11,02,48,3.80
2011,04,11,02,49,3.80
2011,04,11,02,50,3.80
2011,04,11,02,51,3.80
2011,04,11,02,52,3.80
2011,04,11,02,53,3.80
2011,04,11,02,54,3.80
2011,04,11,02,55,3.80
2011,04,11,02,56,3.80
2011,04,11,02,57,3.80
2011,04,11,02,58,3.80
2011,04,11,02,59,3.80
2011,04,11,03,00,3.80
2011,04,11,03,01,3.80
2011,04,11,03,02,3.70
2011,04,11,03,03,3.70
2011,04,11,03,04,3.70
2011,04,11,03,05,3.70
2011,04,11,03,06,3.60
2011,04,11,03,07,3.60
2011,04,11,03,08,3.60
2011,04,11,03,09,3.60
2011,04,11,03,10,3.60
2011,04,11,03,11,3.60
2011,04,11,03,12,3.50
2011,04,11,03,13,3.50
2011,04,11,03,14,3.50
2011,04,11,03,15,3.50
2011,04,11,03,16,3.40
2011,04,11,03,17,3.40
2011,04,11,03,18,3.40
2011,04,11,03,19,3.40
2011,04,11,03,20,3.40
2011,04,11,03,21,3.40
2011,04,11,03,22,3.40
2011,04,11,03,23,3.30
2011,04,11,03,24,3.30
2011,04,11,03,25,3.30
2011,04,11,03,26,3.20
2011,04,11,03,27,3.20
2011,04,11,03,28,3.20
2011,04,11,03,29,3.10
2011,04,11,03,30,3.10
2011,04,11,03,31,3.10
2011,04,11,03,32,3.10
2011,04,11,03,33,3.10
2011,04,11,03,34,3.10
2011,04,11,03,35,3.10
2011,04,11,03,36,3.10
2011,04,11,03,37,3.10
2011,04,11,03,38,3.10
2011,04,11,03,39,3.00
2011,04,11,03,40,3.00
2011,04,11,03,41,3.00
2011,04,11,03,42,3.00
2011,04,11,03,43,3.00
2011,04,11,03,44,2.90
2011,04,11,03,45,2.90
2011,04,11,03,46,2.90
2011,04,11,03,47,2.90
2011,04,11,03,48,2.90
2011,04,11,03,49,2.90
2011,04,11,03,50,2.90
2011,04,11,03,51,2.90
2011,04,11,03,52,2.90
2011,04,11,03,53,2.90
2011,04,11,03,54,2.80
2011,04,11,03,55,2.80
2011,04,11,03,56,2.80
2011,04,11,03,57,2.80
2011,04,11,03,58,2.70
2011,04,11,03,59,2.70
2011,04,11,04,00,2.70
2011,04,11,04,01,2.70
2011,04,11,04,02,2.70
2011,04,11,04,03,2.70
2011,04,11,04,04,2.70
2011,04,11,04,05,2.70
2011,04,11,04,06,2.70
2011,04,11,04,07,2.70
2011,04,11,04,08,2.70
2011,04,11,04,09,2.70
2011,04,11,04,10,2.70
2011,04,11,04,11,2.60
2011,04,11,04,12,2.60
2011,04,11,04,13,2.60
2011,04,11,04,14,2.60
2011,04,11,04,15,2.50
2011,04,11,04,16,2.50
2011,04,11,04,17,2.50
2011,04,11,04,18,2.40
2011,04,11,04,19,2.40
2011,04,11,04,20,2.40
2011,04,11,04,21,2.40
2011,04,11,04,22,2.40
2011,04,11,04,23,2.40
2011,04,11,04,24,2.40
2011,04,11,04,25,2.40
2011,04,11,04,26,2.40
2011,04,11,04,27,2.40
2011,04,11,04,28,2.40
2011,04,11,04,29,2.40
2011,04,11,04,30,2.40
2011,04,11,04,31,2.40
2011,04,11,04,32,2.40
2011,04,11,04,33,2.40
2011,04,11,04,34,2.40
2011,04,11,04,35,2.40
2011,04,11,04,36,2.40
2011,04,11,04,37,2.40
2011,04,11,04,38,2.40
2011,04,11,04,39,2.40
2011,04,11,04,40,2.40
2011,04,11,04,41,2.40
2011,04,11,04,42,2.40
2011,04,11,04,43,2.40
2011,04,11,04,44,2.40
2011,04,11,04,45,2.40
2011,04,11,04,46,2.40
2011,04,11,04,47,2.40
2011,04,11,04,48,2.40
2011,04,11,04,49,2.30
2011,04,11,04,50,2.30
2011,04,11,04,51,2.30
2011,04,11,04,52,2.30
2011,04,11,04,53,2.30
2011,04,11,04,54,2.30
2011,04,11,04,55,2.20
2011,04,11,04,56,2.20
2011,04,11,04,57,2.30
2011,04,11,04,58,2.30
2011,04,11,04,59,2.40
2011,04,11,05,00,2.40
2011,04,11,05,01,2.50
2011,04,11,05,02,2.50
2011,04,11,05,03,2.40
2011,04,11,05,04,2.40
2011,04,11,05,05,2.40
2011,04,11,05,06,2.30
2011,04,11,05,07,2.30
2011,04,11,05,08,2.20
2011,04,11,05,09,2.20
2011,04,11,05,10,2.20
2011,04,11,05,11,2.20
2011,04,11,05,12,2.10
2011,04,11,05,13,2.10
2011,04,11,05,14,2.10
2011,04,11,05,15,2.10
2011,04,11,05,16,2.10
2011,04,11,05,17,2.10
2011,04,11,05,18,2.10
2011,04,11,05,19,2.10
2011,04,11,05,20,2.20
2011,04,11,05,21,2.20
2011,04,11,05,22,2.20
2011,04,11,05,23,2.20
2011,04,11,05,24,2.20
2011,04,11,05,25,2.20
2011,04,11,05,26,2.30
2011,04,11,05,27,2.30
2011,04,11,05,28,2.30
2011,04,11,05,29,2.30
2011,04,11,05,30,2.30
2011,04,11,05,31,2.20
2011,04,11,05,32,2.10
2011,04,11,05,33,2.10
2011,04,11,05,34,2.10
2011,04,11,05,35,2.20
2011,04,11,05,36,2.20
2011,04,11,05,37,2.20
2011,04,11,05,38,2.30
2011,04,11,05,39,2.30
2011,04,11,05,40,2.30
2011,04,11,05,41,2.30
2011,04,11,05,42,2.30
2011,04,11,05,43,2.30
2011,04,11,05,44,2.30
2011,04,11,05,45,2.40
2011,04,11,05,46,2.40
2011,04,11,05,47,2.40
2011,04,11,05,48,2.40
2011,04,11,05,49,2.40
2011,04,11,05,50,2.40
2011,04,11,05,51,2.40
2011,04,11,05,52,2.40
2011,04,11,05,53,2.40
2011,04,11,05,54,2.40
2011,04,11,05,55,2.40
2011,04,11,05,56,2.40
2011,04,11,05,57,2.40
2011,04,11,05,58,2.40
2011,04,11,05,59,2.30
2011,04,11,06,00,2.30
2011,04,11,06,01,2.40
2011,04,11,06,02,2.40
2011,04,11,06,03,2.50
2011,04,11,06,04,2.60
2011,04,11,06,05,2.60
2011,04,11,06,06,2.70
2011,04,11,06,07,2.70
2011,04,11,06,08,2.70
2011,04,11,06,09,2.80
2011,04,11,06,10,2.80
2011,04,11,06,11,2.80
2011,04,11,06,12,2.80
2011,04,11,06,13,2.90
2011,04,11,06,14,2.90
2011,04,11,06,15,2.90
2011,04,11,06,16,2.90
2011,04,11,06,17,3.00
2011,04,11,06,18,3.00
2011,04,11,06,19,3.00
2011,04,11,06,20,3.00
2011,04,11,06,21,3.10
2011,04,11,06,22,3.10
2011,04,11,06,23,3.00
2011,04,11,06,24,3.10
2011,04,11,06,25,3.10
2011,04,11,06,26,3.10
2011,04,11,06,27,3.10
2011,04,11,06,28,3.10
2011,04,11,06,29,3.10
2011,04,11,06,30,3.10
2011,04,11,06,31,3.00
2011,04,11,06,32,3.00
2011,04,11,06,33,3.00
2011,04,11,06,34,3.00
2011,04,11,06,35,2.90
2011,04,11,06,36,2.90
2011,04,11,06,37,2.90
2011,04,11,06,38,2.90
2011,04,11,06,39,2.90
2011,04,11,06,40,2.90
2011,04,11,06,41,2.90
2011,04,11,06,42,2.90
2011,04,11,06,43,2.90
2011,04,11,06,44,2.90
2011,04,11,06,45,2.80
2011,04,11,06,46,2.80
2011,04,11,06,47,2.80
2011,04,11,06,48,2.80
2011,04,11,06,49,2.80
2011,04,11,06,50,2.80
2011,04,11,06,51,2.80
2011,04,11,06,52,2.90
2011,04,11,06,53,2.90
2011,04,11,06,54,2.90
2011,04,11,06,55,2.90
2011,04,11,06,56,2.90
2011,04,11,06,57,2.90
2011,04,11,06,58,3.00
2011,04,11,06,59,3.10
2011,04,11,07,00,3.10
2011,04,11,07,01,3.20
2011,04,11,07,02,3.20
2011,04,11,07,03,3.30
2011,04,11,07,04,3.30
2011,04,11,07,05,3.40
2011,04,11,07,06,3.40
2011,04,11,07,07,3.40
2011,04,11,07,08,3.40
2011,04,11,07,09,3.50
2011,04,11,07,10,3.50
2011,04,11,07,11,3.40
2011,04,11,07,12,3.40
2011,04,11,07,13,3.40
2011,04,11,07,14,3.40
2011,04,11,07,15,3.40
2011,04,11,07,16,3.40
2011,04,11,07,17,3.40
2011,04,11,07,18,3.30
2011,04,11,07,19,3.30
2011,04,11,07,20,3.30
2011,04,11,07,21,3.30
2011,04,11,07,22,3.20
2011,04,11,07,23,3.20
2011,04,11,07,24,3.20
2011,04,11,07,25,3.20
2011,04,11,07,26,3.20
2011,04,11,07,27,3.20
2011,04,11,07,28,3.20
2011,04,11,07,29,3.20
2011,04,11,07,30,3.20
2011,04,11,07,31,3.30
2011,04,11,07,32,3.30
2011,04,11,07,33,3.30
2011,04,11,07,34,3.40
2011,04,11,07,35,3.40
2011,04,11,07,36,3.40
2011,04,11,07,37,3.50
2011,04,11,07,38,3.50
2011,04,11,07,39,3.60
2011,04,11,07,40,3.70
2011,04,11,07,41,3.70
2011,04,11,07,42,3.80
2011,04,11,07,43,3.80
2011,04,11,07,44,3.80
2011,04,11,07,45,3.90
2011,04,11,07,46,3.90
2011,04,11,07,47,3.90
2011,04,11,07,48,4.00
2011,04,11,07,49,4.00
2011,04,11,07,50,4.10
2011,04,11,07,51,4.10
2011,04,11,07,52,4.10
2011,04,11,07,53,4.20
2011,04,11,07,54,4.20
2011,04,11,07,55,4.30
2011,04,11,07,56,4.30
2011,04,11,07,57,4.30
2011,04,11,07,58,4.30
2011,04,11,07,59,4.40
2011,04,11,08,00,4.40
2011,04,11,08,01,4.40
2011,04,11,08,02,4.50
2011,04,11,08,03,4.60
2011,04,11,08,04,4.60
2011,04,11,08,05,4.70
2011,04,11,08,06,4.70
2011,04,11,08,07,4.80
2011,04,11,08,08,4.90
2011,04,11,08,09,4.90
2011,04,11,08,10,5.00
2011,04,11,08,11,5.00
2011,04,11,08,12,5.10
2011,04,11,08,13,5.10
2011,04,11,08,14,5.20
2011,04,11,08,15,5.20
2011,04,11,08,16,5.30
2011,04,11,08,17,5.30
2011,04,11,08,18,5.30
2011,04,11,08,19,5.30
2011,04,11,08,20,5.30
2011,04,11,08,21,5.30
2011,04,11,08,22,5.30
2011,04,11,08,23,5.30
2011,04,11,08,24,5.30
2011,04,11,08,25,5.30
2011,04,11,08,26,5.30
2011,04,11,08,27,5.30
2011,04,11,08,28,5.30
2011,04,11,08,29,5.30
2011,04,11,08,30,5.30
2011,04,11,08,31,5.30
2011,04,11,08,32,5.30
2011,04,11,08,33,5.30
2011,04,11,08,34,5.30
2011,04,11,08,35,5.30
2011,04,11,08,36,5.40
2011,04,11,08,37,5.50
2011,04,11,08,38,5.50
2011,04,11,08,39,5.60
2011,04,11,08,40,5.70
2011,04,11,08,41,5.70
2011,04,11,08,42,5.80
2011,04,11,08,43,5.80
2011,04,11,08,44,5.80
2011,04,11,08,45,5.80
2011,04,11,08,46,5.70
2011,04,11,08,47,5.70
2011,04,11,08,48,5.80
2011,04,11,08,49,5.80
2011,04,11,08,50,5.80
2011,04,11,08,51,5.80
2011,04,11,08,52,5.80
2011,04,11,08,53,5.80
2011,04,11,08,54,5.80
2011,04,11,08,55,5.80
2011,04,11,08,56,5.80
2011,04,11,08,57,5.90
2011,04,11,08,58,5.90
2011,04,11,08,59,5.90
2011,04,11,09,00,5.90
2011,04,11,09,01,5.80
2011,04,11,09,02,5.80
2011,04,11,09,03,5.80
2011,04,11,09,04,5.80
2011,04,11,09,05,5.80
2011,04,11,09,06,5.80
2011,04,11,09,07,5.70
2011,04,11,09,08,5.70
2011,04,11,09,09,5.70
2011,04,11,09,10,5.60
2011,04,11,09,11,5.60
2011,04,11,09,12,5.70
2011,04,11,09,13,5.70
2011,04,11,09,14,5.70
2011,04,11,09,15,5.70
2011,04,11,09,16,5.80
2011,04,11,09,17,5.80
2011,04,11,09,18,5.90
2011,04,11,09,19,5.90
2011,04,11,09,20,6.00
2011,04,11,09,21,6.10
2011,04,11,09,22,6.20
2011,04,11,09,23,6.30
2011,04,11,09,24,6.40
2011,04,11,09,25,6.50
2011,04,11,09,26,6.60
2011,04,11,09,27,6.60
2011,04,11,09,28,6.70
2011,04,11,09,29,6.70
2011,04,11,09,30,6.70
2011,04,11,09,31,6.70
2011,04,11,09,32,6.70
2011,04,11,09,33,6.80
2011,04,11,09,34,6.70
2011,04,11,09,35,6.70
2011,04,11,09,36,6.70
2011,04,11,09,37,6.70
2011,04,11,09,38,6.60
2011,04,11,09,39,6.60
2011,04,11,09,40,6.50
2011,04,11,09,41,6.50
2011,04,11,09,42,6.50
2011,04,11,09,43,6.50
2011,04,11,09,44,6.60
2011,04,11,09,45,6.60
2011,04,11,09,46,6.60
2011,04,11,09,47,6.60
2011,04,11,09,48,6.60
2011,04,11,09,49,6.70
2011,04,11,09,50,6.70
2011,04,11,09,51,6.70
2011,04,11,09,52,6.80
2011,04,11,09,53,6.80
2011,04,11,09,54,6.90
2011,04,11,09,55,6.90
2011,04,11,09,56,6.90
2011,04,11,09,57,7.00
2011,04,11,09,58,7.00
2011,04,11,09,59,7.10
2011,04,11,10,00,7.10
2011,04,11,10,01,7.10
2011,04,11,10,02,7.10
2011,04,11,10,03,7.10
2011,04,11,10,04,7.10
2011,04,11,10,05,7.20
2011,04,11,10,06,7.20
2011,04,11,10,07,7.20
2011,04,11,10,08,7.20
2011,04,11,10,09,7.20
2011,04,11,10,10,7.30
2011,04,11,10,11,7.30
2011,04,11,10,12,7.40
2011,04,11,10,13,7.40
2011,04,11,10,14,7.50
2011,04,11,10,15,7.50
2011,04,11,10,16,7.60
2011,04,11,10,17,7.60
2011,04,11,10,18,7.60
2011,04,11,10,19,7.60
2011,04,11,10,20,7.60
2011,04,11,10,21,7.60
2011,04,11,10,22,7.70
2011,04,11,10,23,7.70
2011,04,11,10,24,7.70
2011,04,11,10,25,7.70
2011,04,11,10,26,7.70
2011,04,11,10,27,7.70
2011,04,11,10,28,7.70
2011,04,11,10,29,7.80
2011,04,11,10,30,7.80
2011,04,11,10,31,7.90
2011,04,11,10,32,8.10
2011,04,11,10,33,8.10
2011,04,11,10,34,8.20
2011,04,11,10,35,8.30
2011,04,11,10,36,8.40
2011,04,11,10,37,8.40
2011,04,11,10,38,8.50
2011,04,11,10,39,8.50
2011,04,11,10,40,8.60
2011,04,11,10,41,8.60
2011,04,11,10,42,8.60
2011,04,11,10,43,8.70
2011,04,11,10,44,8.70
2011,04,11,10,45,8.70
2011,04,11,10,46,8.70
2011,04,11,10,47,8.80
2011,04,11,10,48,8.70
2011,04,11,10,49,8.80
2011,04,11,10,50,8.80
2011,04,11,10,51,8.90
2011,04,11,10,52,8.90
2011,04,11,10,53,9.00
2011,04,11,10,54,9.00
2011,04,11,10,55,9.10
2011,04,11,10,56,9.20
2011,04,11,10,57,9.20
2011,04,11,10,58,9.30
2011,04,11,10,59,9.30
2011,04,11,11,00,9.30
2011,04,11,11,01,9.30
2011,04,11,11,02,9.40
2011,04,11,11,03,9.50
2011,04,11,11,04,9.50
2011,04,11,11,05,9.50
2011,04,11,11,06,9.50
2011,04,11,11,07,9.50
2011,04,11,11,08,9.40
2011,04,11,11,09,9.40
2011,04,11,11,10,9.40
2011,04,11,11,11,9.30
2011,04,11,11,12,9.30
2011,04,11,11,13,9.20
2011,04,11,11,14,9.00
2011,04,11,11,15,8.90
2011,04,11,11,16,8.90
2011,04,11,11,17,8.80
2011,04,11,11,18,8.80
2011,04,11,11,19,8.80
2011,04,11,11,20,8.80
2011,04,11,11,21,8.80
2011,04,11,11,22,8.80
2011,04,11,11,23,8.80
2011,04,11,11,24,8.70
2011,04,11,11,25,8.50
2011,04,11,11,26,8.40
2011,04,11,11,27,8.30
2011,04,11,11,28,8.30
2011,04,11,11,29,8.30
2011,04,11,11,30,8.20
2011,04,11,11,31,8.20
2011,04,11,11,32,8.20
2011,04,11,11,33,8.30
2011,04,11,11,34,8.40
2011,04,11,11,35,8.50
2011,04,11,11,36,8.70
2011,04,11,11,37,8.80
2011,04,11,11,38,8.90
2011,04,11,11,39,9.00
2011,04,11,11,40,9.00
2011,04,11,11,41,9.10
2011,04,11,11,42,9.20
2011,04,11,11,43,9.20
2011,04,11,11,44,9.20
2011,04,11,11,45,9.10
2011,04,11,11,46,9.10
2011,04,11,11,47,9.10
2011,04,11,11,48,9.10
2011,04,11,11,49,9.20
2011,04,11,11,50,9.20
2011,04,11,11,51,9.30
2011,04,11,11,52,9.30
2011,04,11,11,53,9.40
2011,04,11,11,54,9.40
2011,04,11,11,55,9.30
2011,04,11,11,56,9.30
2011,04,11,11,57,9.30
2011,04,11,11,58,9.20
2011,04,11,11,59,9.20
2011,04,11,12,00,9.10
2011,04,11,12,01,9.10
2011,04,11,12,02,9.10
2011,04,11,12,03,9.10
2011,04,11,12,04,9.20
2011,04,11,12,05,9.20
2011,04,11,12,06,9.40
2011,04,11,12,07,9.50
2011,04,11,12,08,9.60
2011,04,11,12,09,9.60
2011,04,11,12,10,9.60
2011,04,11,12,11,9.60
2011,04,11,12,12,9.60
2011,04,11,12,13,9.60
2011,04,11,12,14,9.60
2011,04,11,12,15,9.50
2011,04,11,12,16,9.40
2011,04,11,12,17,9.50
2011,04,11,12,18,9.50
2011,04,11,12,19,9.50
2011,04,11,12,20,9.50
2011,04,11,12,21,9.50
2011,04,11,12,22,9.40
2011,04,11,12,23,9.40
2011,04,11,12,24,9.40
2011,04,11,12,25,9.40
2011,04,11,12,26,9.40
2011,04,11,12,27,9.40
2011,04,11,12,28,9.30
2011,04,11,12,29,9.30
2011,04,11,12,30,9.20
2011,04,11,12,31,9.30
2011,04,11,12,32,9.20
2011,04,11,12,33,9.20
2011,04,11,12,34,9.20
2011,04,11,12,35,9.20
2011,04,11,12,36,9.20
2011,04,11,12,37,9.20
2011,04,11,12,38,9.10
2011,04,11,12,39,9.10
2011,04,11,12,40,9.10
2011,04,11,12,41,9.00
2011,04,11,12,42,8.90
2011,04,11,12,43,8.90
2011,04,11,12,44,8.80
2011,04,11,12,45,8.80
2011,04,11,12,46,8.70
2011,04,11,12,47,8.70
2011,04,11,12,48,8.60
2011,04,11,12,49,8.60
2011,04,11,12,50,8.50
2011,04,11,12,51,8.50
2011,04,11,12,52,8.50
2011,04,11,12,53,8.40
2011,04,11,12,54,8.30
2011,04,11,12,55,8.40
2011,04,11,12,56,8.40
2011,04,11,12,57,8.50
2011,04,11,12,58,8.50
2011,04,11,12,59,8.60
2011,04,11,13,00,8.60
2011,04,11,13,01,8.70
2011,04,11,13,02,8.70
2011,04,11,13,03,8.70
2011,04,11,13,04,8.70
2011,04,11,13,05,8.80
2011,04,11,13,06,8.90
2011,04,11,13,07,9.00
2011,04,11,13,08,9.00
2011,04,11,13,09,9.00
2011,04,11,13,10,8.90
2011,04,11,13,11,8.90
2011,04,11,13,12,9.00
2011,04,11,13,13,9.10
2011,04,11,13,14,9.20
2011,04,11,13,15,9.40
2011,04,11,13,16,9.50
2011,04,11,13,17,9.60
2011,04,11,13,18,9.70
2011,04,11,13,19,9.80
2011,04,11,13,20,9.80
2011,04,11,13,21,9.80
2011,04,11,13,22,9.80
2011,04,11,13,23,9.90
2011,04,11,13,24,9.90
2011,04,11,13,25,9.90
2011,04,11,13,26,9.90
2011,04,11,13,27,9.80
2011,04,11,13,28,9.70
2011,04,11,13,29,9.70
2011,04,11,13,30,9.60
2011,04,11,13,31,9.60
2011,04,11,13,32,9.50
2011,04,11,13,33,9.40
2011,04,11,13,34,9.50
2011,04,11,13,35,9.60
2011,04,11,13,36,9.60
2011,04,11,13,37,9.70
2011,04,11,13,38,9.80
2011,04,11,13,39,9.90
2011,04,11,13,40,9.80
2011,04,11,13,41,9.90
2011,04,11,13,42,9.90
2011,04,11,13,43,9.80
2011,04,11,13,44,9.70
2011,04,11,13,45,9.60
2011,04,11,13,46,9.60
2011,04,11,13,47,9.60
2011,04,11,13,48,9.60
2011,04,11,13,49,9.50
2011,04,11,13,50,9.50
2011,04,11,13,51,9.50
2011,04,11,13,52,9.50
2011,04,11,13,53,9.50
2011,04,11,13,54,9.50
2011,04,11,13,55,9.50
2011,04,11,13,56,9.50
2011,04,11,13,57,9.40
2011,04,11,13,58,9.30
2011,04,11,13,59,9.30
2011,04,11,14,00,9.30
2011,04,11,14,01,9.30
2011,04,11,14,02,9.40
2011,04,11,14,03,9.40
2011,04,11,14,04,9.50
2011,04,11,14,05,9.60
2011,04,11,14,06,9.70
2011,04,11,14,07,9.90
2011,04,11,14,08,10.10
2011,04,11,14,09,10.30
2011,04,11,14,10,10.30
2011,04,11,14,11,10.40
2011,04,11,14,12,10.40
2011,04,11,14,13,10.40
2011,04,11,14,14,10.40
2011,04,11,14,15,10.30
2011,04,11,14,16,10.20
2011,04,11,14,17,10.10
2011,04,11,14,18,10.10
2011,04,11,14,19,10.10
2011,04,11,14,20,10.10
2011,04,11,14,21,10.10
2011,04,11,14,22,10.10
2011,04,11,14,23,10.10
2011,04,11,14,24,10.00
2011,04,11,14,25,10.00
2011,04,11,14,26,9.90
2011,04,11,14,27,9.90
2011,04,11,14,28,9.90
2011,04,11,14,29,9.90
2011,04,11,14,30,9.80
2011,04,11,14,31,9.70
2011,04,11,14,32,9.60
2011,04,11,14,33,9.60
2011,04,11,14,34,9.60
2011,04,11,14,35,9.60
2011,04,11,14,36,9.60
2011,04,11,14,37,9.60
2011,04,11,14,38,9.60
2011,04,11,14,39,9.60
2011,04,11,14,40,9.60
2011,04,11,14,41,9.60
2011,04,11,14,42,9.60
2011,04,11,14,43,9.60
2011,04,11,14,44,9.60
2011,04,11,14,45,9.50
2011,04,11,14,46,9.40
2011,04,11,14,47,9.30
2011,04,11,14,48,9.30
2011,04,11,14,49,9.30
2011,04,11,14,50,9.30
2011,04,11,14,51,9.30
2011,04,11,14,52,9.40
2011,04,11,14,53,9.50
2011,04,11,14,54,9.60
2011,04,11,14,55,9.70
2011,04,11,14,56,9.80
2011,04,11,14,57,9.80
2011,04,11,14,58,9.80
2011,04,11,14,59,9.90
2011,04,11,15,00,9.90
2011,04,11,15,01,9.90
2011,04,11,15,02,10.00
2011,04,11,15,03,10.10
2011,04,11,15,04,10.20
2011,04,11,15,05,10.30
2011,04,11,15,06,10.30
2011,04,11,15,07,10.40
2011,04,11,15,08,10.40
2011,04,11,15,09,10.40
2011,04,11,15,10,10.50
2011,04,11,15,11,10.50
2011,04,11,15,12,10.60
2011,04,11,15,13,10.60
2011,04,11,15,14,10.60
2011,04,11,15,15,10.60
2011,04,11,15,16,10.50
2011,04,11,15,17,10.50
2011,04,11,15,18,10.40
2011,04,11,15,19,10.30
2011,04,11,15,20,10.30
2011,04,11,15,21,10.30
2011,04,11,15,22,10.30
2011,04,11,15,23,10.30
2011,04,11,15,24,10.20
2011,04,11,15,25,10.20
2011,04,11,15,26,10.20
2011,04,11,15,27,10.30
2011,04,11,15,28,10.40
2011,04,11,15,29,10.40
2011,04,11,15,30,10.50
2011,04,11,15,31,10.60
2011,04,11,15,32,10.60
2011,04,11,15,33,10.70
2011,04,11,15,34,10.80
2011,04,11,15,35,10.80
2011,04,11,15,36,10.90
2011,04,11,15,37,10.80
2011,04,11,15,38,10.90
2011,04,11,15,39,10.90
2011,04,11,15,40,10.90
2011,04,11,15,41,11.00
2011,04,11,15,42,11.00
2011,04,11,15,43,11.00
2011,04,11,15,44,11.00
2011,04,11,15,45,10.90
2011,04,11,15,46,10.90
2011,04,11,15,47,10.90
2011,04,11,15,48,10.80
2011,04,11,15,49,10.60
2011,04,11,15,50,10.40
2011,04,11,15,51,10.20
2011,04,11,15,52,10.00
2011,04,11,15,53,9.80
2011,04,11,15,54,9.70
2011,04,11,15,55,9.60
2011,04,11,15,56,9.50
2011,04,11,15,57,9.40
2011,04,11,15,58,9.30
2011,04,11,15,59,9.20
2011,04,11,16,00,9.20
2011,04,11,16,01,9.20
2011,04,11,16,02,9.20
2011,04,11,16,03,9.30
2011,04,11,16,04,9.40
2011,04,11,16,05,9.50
2011,04,11,16,06,9.60
2011,04,11,16,07,9.70
2011,04,11,16,08,9.90
2011,04,11,16,09,10.00
2011,04,11,16,10,10.10
2011,04,11,16,11,10.20
2011,04,11,16,12,10.20
2011,04,11,16,13,10.10
2011,04,11,16,14,10.10
2011,04,11,16,15,10.10
2011,04,11,16,16,10.10
2011,04,11,16,17,10.20
2011,04,11,16,18,10.20
2011,04,11,16,19,10.30
2011,04,11,16,20,10.30
2011,04,11,16,21,10.30
2011,04,11,16,22,10.20
2011,04,11,16,23,10.00
2011,04,11,16,24,9.90
2011,04,11,16,25,9.70
2011,04,11,16,26,9.50
2011,04,11,16,27,9.40
2011,04,11,16,28,9.30
2011,04,11,16,29,9.30
2011,04,11,16,30,9.30
2011,04,11,16,31,9.30
2011,04,11,16,32,9.30
2011,04,11,16,33,9.40
2011,04,11,16,34,9.40
2011,04,11,16,35,9.40
2011,04,11,16,36,9.40
2011,04,11,16,37,9.40
2011,04,11,16,38,9.30
2011,04,11,16,39,9.30
2011,04,11,16,40,9.30
2011,04,11,16,41,9.30
2011,04,11,16,42,9.40
2011,04,11,16,43,9.40
2011,04,11,16,44,9.50
2011,04,11,16,45,9.50
2011,04,11,16,46,9.50
2011,04,11,16,47,9.40
2011,04,11,16,48,9.40
2011,04,11,16,49,9.30
2011,04,11,16,50,9.30
2011,04,11,16,51,9.30
2011,04,11,16,52,9.20
2011,04,11,16,53,9.20
2011,04,11,16,54,9.20
2011,04,11,16,55,9.20
2011,04,11,16,56,9.20
2011,04,11,16,57,9.20
2011,04,11,16,58,9.20
2011,04,11,16,59,9.20
2011,04,11,17,00,9.20
2011,04,11,17,01,9.20
2011,04,11,17,02,9.20
2011,04,11,17,03,9.30
2011,04,11,17,04,9.40
2011,04,11,17,05,9.50
2011,04,11,17,06,9.60
2011,04,11,17,07,9.60
2011,04,11,17,08,9.70
2011,04,11,17,09,9.80
2011,04,11,17,10,9.80
2011,04,11,17,11,9.80
2011,04,11,17,12,9.70
2011,04,11,17,13,9.70
2011,04,11,17,14,9.70
2011,04,11,17,15,9.60
2011,04,11,17,16,9.60
2011,04,11,17,17,9.50
2011,04,11,17,18,9.40
2011,04,11,17,19,9.30
2011,04,11,17,20,9.20
2011,04,11,17,21,9.10
2011,04,11,17,22,9.10
2011,04,11,17,23,9.10
2011,04,11,17,24,9.10
2011,04,11,17,25,9.10
2011,04,11,17,26,9.20
2011,04,11,17,27,9.20
2011,04,11,17,28,9.20
2011,04,11,17,29,9.20
2011,04,11,17,30,9.20
2011,04,11,17,31,9.20
2011,04,11,17,32,9.20
2011,04,11,17,33,9.20
2011,04,11,17,34,9.20
2011,04,11,17,35,9.30
2011,04,11,17,36,9.30
2011,04,11,17,37,9.30
2011,04,11,17,38,9.30
2011,04,11,17,39,9.30
2011,04,11,17,40,9.30
2011,04,11,17,41,9.30
2011,04,11,17,42,9.30
2011,04,11,17,43,9.30
2011,04,11,17,44,9.30
2011,04,11,17,45,9.30
2011,04,11,17,46,9.30
2011,04,11,17,47,9.20
2011,04,11,17,48,9.10
2011,04,11,17,49,9.10
2011,04,11,17,50,9.00
2011,04,11,17,51,9.00
2011,04,11,17,52,9.00
2011,04,11,17,53,9.00
2011,04,11,17,54,8.90
2011,04,11,17,55,8.90
2011,04,11,17,56,8.90
2011,04,11,17,57,8.80
2011,04,11,17,58,8.80
2011,04,11,17,59,8.80
2011,04,11,18,00,8.70
2011,04,11,18,01,8.70
2011,04,11,18,02,8.70